Home   Weather   Balurghat   Past weeks

Flag for India Past Weather in Balurghat, West Bengal, India — Yesterday and Last 2 Weeks

Now
79 °F

Partly cloudy.


Feels Like: 80 °F
Forecast: 73 / 89 °F
Wind: 2 mph from North

Location: Lucknow / Amausi

Current Time: May 1, 2017 at 4:30:47 am

Latest Report: May 1, 2017 at 4:00 am


Visibility: 2 mi

Pressure: 29.68 "Hg

Humidity: 48%

Dew Point: 57 °F

Location of BalurghatLocation

Past Weather in Balurghat — Graph

°F

Balurghat Temperature Yesterday

Maximum temperature yesterday: 106 °F (at 1:30 pm)
Minimum temperature yesterday: 84 °F (at 4:00 am)
Average temperature yesterday: 95 °F

High & Low Weather Summary for the Past Weeks

 TemperatureHumidityPressure
High109 °F (Apr 19, 2:00 pm)89% (Apr 20, 5:00 am)29.77 "Hg (Apr 20, 5:00 am)
Low73 °F (Apr 16, 5:30 am)9% (Apr 25, 12:30 pm)29.47 "Hg (Apr 20, 4:00 pm)
Average93 °F42%29.63 "Hg
* Reported Apr 16 3:00 am — May 1 3:00 am, Balurghat, Weather by CustomWeather, © 2017

Note: Actual official high and low records may vary slightly from our data, if they occured in-between our weather recording intervals... More about our weather records

Advertising

Balurghat Weather History for the Previous 24 Hours

Scroll right to see more
 ConditionsComfort  
Time TempWeatherWind HumidityBarometerVisibility
3:00 am
Mon, May 1
82 °FPartly cloudy.2 mph40%29.65 "Hg1 mi
2:00 am84 °FPartly cloudy.2 mph37%29.65 "Hg1 mi
1:00 am86 °FPartly cloudy.2 mph35%29.65 "Hg1 mi
12:00 am88 °FPartly cloudy.2 mph33%29.68 "Hg1 mi
11:00 pm
Sun, Apr 30
91 °FPartly cloudy.5 mph28%29.68 "Hg1 mi
10:00 pm93 °FPartly cloudy.9 mph30%29.71 "Hg1 mi
9:00 pm93 °FHaze.2 mph32%29.68 "Hg2 mi
8:30 pm95 °FHaze.2 mph32%29.65 "Hg2 mi
8:00 pm95 °FHaze.2 mph30%29.65 "Hg2 mi
7:00 pm97 °FHaze.No wind28%29.62 "Hg2 mi
6:00 pm99 °FHaze.No wind24%29.62 "Hg2 mi
5:30 pm104 °FHaze.No wind20%29.62 "Hg2 mi
5:00 pm106 °FHaze.2 mph19%29.62 "Hg2 mi
2:00 pm106 °FPassing clouds.2 mph19%29.68 "Hg2 mi
1:30 pm106 °FScattered clouds.2 mph19%29.71 "Hg2 mi
12:30 pm104 °FScattered clouds.6 mph20%29.71 "Hg2 mi
12:00 pm104 °FHaze.2 mph20%29.74 "Hg2 mi
11:30 am104 °FHaze.2 mph20%29.74 "Hg2 mi
11:00 am102 °FHaze.5 mph23%29.74 "Hg2 mi
10:30 am100 °FHaze.6 mph27%29.74 "Hg2 mi
10:00 am100 °FHaze.3 mph25%29.74 "Hg2 mi
9:30 am99 °FHaze.3 mph29%29.74 "Hg2 mi
9:00 am95 °FHaze.3 mph30%29.74 "Hg2 mi
8:30 am91 °FScattered clouds.3 mph34%29.74 "Hg2 mi
8:00 am90 °FScattered clouds.3 mph36%29.74 "Hg2 mi
7:30 am88 °FHaze.2 mph35%29.71 "Hg2 mi
7:00 am86 °FHaze.2 mph35%29.71 "Hg2 mi
6:30 am84 °FHaze.2 mph37%29.71 "Hg1 mi
6:00 am84 °FScattered clouds.2 mph37%29.71 "Hg1 mi
5:30 am84 °FPartly cloudy.3 mph37%29.71 "Hg1 mi
5:00 am84 °FPartly cloudy.2 mph37%29.71 "Hg1 mi
4:00 am84 °FPartly cloudy.3 mph37%29.71 "Hg1 mi
Weather by CustomWeather, © 2017

See weather overviewHow to use our weather pages